7 * 24
多渠道服务支持
STARLINK-37001(NORAD编号68330)是美国SpaceX公司星链(Starlink)卫星互联网星座的成员,属于低轨通信卫星,运行在近地轨道(LEO),旨在为全球提供高速低延迟互联网服务,重点覆盖地面基础设施难以到达的偏远地区、海洋和空域。作为星链大规模部署计划的一员,它和其他星链卫星共同构建全球卫星互联网络,支持民用通信,也可支持军事与应急通信场景。该卫星目前处于在轨运行状态,延续星链星座低轨高密度的组网设计,助力SpaceX推进全球互联网覆盖目标。
美国
(US)
| 数据来源 | 国际轨道数据 |
| 星历时间: | 2026-06-10T08:27:45+0800 11小时前 查看轨道信息 |
| 半长轴: | 6853.275km |
| 偏心率: | 0.0001022 |
| 轨道倾角: | 53.158° |
| 近地点辐角 | 93.572° |
| 升交点赤经 | 279.292° |
| 平近点角 | 266.539° |
| 近地点: | 474.437km |
| 远地点: | 475.839km |
| 周期: | 94.104分钟 |
| 每日圈数: | 15.302261 |